N0XUT Weather Reports


Display with metric or nautical units.
time (UTC)temp
F
wind
direction
speed
MPH
gust
MPH
rain 1hr
in
rain 24hr
in
rain mn
in
humidity
%
barometer
mb
20260510121457 44 331 3.0 6.0 0.00 0.00 0.00 57 1018.6
20260510115957 43 330 2.0 3.0 0.00 0.00 0.00 59 1018.2
20260510114456 42 343 2.0 3.0 0.00 0.00 0.00 59 1018.0
20260510112956 41 2 3.0 5.0 0.00 0.00 0.00 59 1017.7
20260510111456 42 350 3.0 9.0 0.00 0.00 0.00 58 1017.6
20260510105957 42 328 4.0 9.0 0.00 0.00 0.00 58 1017.5
20260510102957 43 325 5.0 12.0 0.00 0.00 0.00 55 1017.3
20260510095957 42 326 5.0 10.0 0.00 0.00 0.00 56 1017.2
20260510094456 42 316 3.0 7.0 0.00 0.00 0.00 56 1017.1
20260510092956 42 314 3.0 5.0 0.00 0.00 0.00 58 1017.0
20260510091457 42 311 2.0 3.0 0.00 0.00 0.00 57 1016.8
20260510085957 42 307 3.0 5.0 0.00 0.00 0.00 57 1016.7
20260510084456 42 309 0.0 3.0 0.00 0.00 0.00 55 1016.6
20260510082957 43 309 2.0 5.0 0.00 0.00 0.00 54 1016.2
20260510081457 43 311 2.0 3.0 0.00 0.00 0.00 53 1015.9
20260510075956 45 355 2.0 6.0 0.00 0.00 0.00 49 1015.6
20260510074456 46 333 3.0 9.0 0.00 0.00 0.00 49 1015.2
20260510072956 45 336 3.0 8.0 0.00 0.00 0.00 49 1015.0
20260510071457 45 330 3.0 6.0 0.00 0.00 0.00 49 1015.2
20260510065957 46 313 1.0 5.0 0.00 0.00 0.00 49 1015.1
20260510064456 46 341 0.0 3.0 0.00 0.00 0.00 48 1014.9
20260510062956 47 355 1.0 3.0 0.00 0.00 0.00 47 1014.7
20260510061457 48 335 3.0 8.0 0.00 0.00 0.00 44 1014.6
20260510055957 48 322 5.0 6.0 0.00 0.00 0.00 45 1014.3
20260510054456 48 326 3.0 6.0 0.00 0.00 0.00 45 1014.1
20260510051457 49 326 2.0 7.0 0.00 0.00 0.00 44 1013.8
20260510045957 49 333 3.0 8.0 0.00 0.00 0.00 44 1013.5
20260510044457 49 332 4.0 8.0 0.00 0.00 0.00 44 1013.3
20260510042957 49 330 4.0 6.0 0.00 0.00 0.00 43 1013.1
20260510041457 50 331 2.0 5.0 0.00 0.00 0.00 42 1012.9
20260510034457 52 337 4.0 8.0 0.00 0.00 0.00 41 1012.5
20260510032957 52 338 5.0 9.0 0.00 0.00 0.00 39 1012.4
20260510031457 53 342 3.0 6.0 0.00 0.00 0.00 38 1012.1
20260510025957 54 332 4.0 8.0 0.00 0.00 0.00 37 1011.9
20260510022957 56 334 4.0 9.0 0.00 0.00 0.00 34 1011.2
20260510021457 57 337 5.0 8.0 0.00 0.00 0.00 33 1010.9
20260510005957 62 325 7.0 14.0 0.00 0.00 0.00 28 1009.2
20260510004456 63 325 9.0 17.0 0.00 0.00 0.00 27 1008.9
20260510002957 64 330 7.0 16.0 0.00 0.00 0.00 27 1008.6
20260510001457 65 323 8.0 17.0 0.00 0.00 0.00 26 1008.4
20260509235957 65 329 11.0 21.0 0.00 0.00 0.00 26 1008.3
20260509232957 66 319 9.0 20.0 0.00 0.00 0.00 28 1007.8
20260509231458 67 327 13.0 21.0 0.00 0.00 0.00 27 1007.6
20260509225957 67 333 10.0 18.0 0.00 0.00 0.00 28 1007.4
20260509224457 68 321 9.0 21.0 0.00 0.00 0.00 29 1007.3
20260509221458 68 305 11.0 21.0 0.00 0.00 0.00 30 1006.9
20260509214457 69 321 9.0 24.0 0.00 0.00 0.00 29 1006.6
20260509212958 69 300 9.0 20.0 0.00 0.00 0.00 29 1006.2
20260509211457 70 291 9.0 23.0 0.00 0.00 0.00 31 1006.3
20260509205957 69 319 11.0 25.0 0.00 0.00 0.00 30 1006.1
20260509202957 70 311 13.0 21.0 0.00 0.00 0.00 30 1006.0
20260509201457 69 287 12.0 21.0 0.00 0.00 0.00 34 1005.8
20260509195957 69 289 13.0 22.0 0.00 0.00 0.00 35 1005.8
20260509194458 68 262 9.0 18.0 0.00 0.00 0.00 40 1006.0
20260509192957 66 297 12.0 20.0 0.00 0.00 0.00 42 1006.0
20260509191458 66 303 9.0 17.0 0.00 0.00 0.00 45 1005.7
20260509185957 65 285 5.0 18.0 0.00 0.00 0.00 46 1005.5
20260509184458 67 301 11.0 21.0 0.00 0.00 0.00 47 1005.5
20260509181457 66 293 14.0 21.0 0.00 0.00 0.00 46 1005.7
20260509175957 66 317 13.0 23.0 0.00 0.00 0.00 45 1005.4
20260509174458 67 319 12.0 20.0 0.00 0.00 0.00 43 1005.2
20260509172957 66 280 7.0 20.0 0.00 0.00 0.00 41 1005.2
20260509171457 66 291 7.0 14.0 0.00 0.00 0.00 39 1005.1
20260509165957 65 286 7.0 15.0 0.00 0.00 0.00 40 1004.9
20260509162958 65 300 5.0 15.0 0.00 0.00 0.00 38 1005.1
20260509161457 66 288 9.0 21.0 0.00 0.00 0.00 35 1005.4
20260509155958 67 311 11.0 20.0 0.00 0.00 0.00 33 1005.2
20260509154458 68 289 9.0 16.0 0.00 0.00 0.00 32 1004.8
20260509152957 68 296 8.0 16.0 0.00 0.00 0.00 32 1004.6
20260509151457 67 280 9.0 17.0 0.00 0.00 0.00 34 1004.6
20260509145957 67 313 7.0 18.0 0.00 0.00 0.00 35 1004.6
20260509142958 66 269 11.0 22.0 0.00 0.00 0.00 35 1004.6
20260509141458 66 302 9.0 17.0 0.00 0.00 0.00 36 1004.6
20260509135958 64 258 7.0 13.0 0.00 0.00 0.00 42 1004.3
20260509132957 60 253 3.0 8.0 0.00 0.00 0.00 50 1004.1
20260509131458 58 243 4.0 9.0 0.00 0.00 0.00 53 1003.9
20260509125957 56 241 3.0 5.0 0.00 0.00 0.00 60 1003.8
20260509124457 53 250 3.0 6.0 0.00 0.00 0.00 65 1003.7
20260509122958 51 233 2.0 3.0 0.00 0.00 0.00 71 1003.5